When you browse on this site, cookies collect data to enhance your experience and personalize the content and advertising you see.
Visit our Privacy Policy to learn more. By continuing to use the site, you agree to this use of cookies and data.

Stündliche Wetter Fier

Heute, 10 Juli, Freitag

Zeit Temperatur Niederschläge Wind Luftdruck Luftfeuchtigkeit
00:00 +24°C° 0 mm 1 m/S 760 mmHg 66%
01:00 +24°C° 0 mm 1 m/S 760 mmHg 65%
02:00 +24°C° 0 mm 1 m/S 760 mmHg 64%
03:00 +24°C° 0 mm 1 m/S 760 mmHg 64%
04:00 +23°C° 0 mm 1 m/S 760 mmHg 64%
05:00 +25°C° 0 mm 1 m/S 760 mmHg 60%
06:00 +27°C° 0 mm 1 m/S 760 mmHg 55%
07:00 +29°C° 0 mm 2 m/S 760 mmHg 49%
08:00 +30°C° 0 mm 1 m/S 760 mmHg 44%
09:00 +32°C° 0 mm 1 m/S 760 mmHg 40%
10:00 +33°C° 0 mm 1 m/S 760 mmHg 36%
11:00 +35°C° 0 mm 2 m/S 760 mmHg 37%
12:00 +35°C° 0 mm 3 m/S 759 mmHg 38%
13:00 +35°C° 0 mm 4 m/S 759 mmHg 39%
14:00 +34°C° 0 mm 4 m/S 759 mmHg 41%
15:00 +34°C° 0 mm 3 m/S 759 mmHg 43%
16:00 +33°C° 0 mm 3 m/S 759 mmHg 44%
17:00 +30°C° 0 mm 2 m/S 759 mmHg 49%
18:00 +29°C° 0 mm 2 m/S 759 mmHg 54%
19:00 +27°C° 0 mm 1 m/S 759 mmHg 59%
20:00 +27°C° 0 mm 1 m/S 759 mmHg 60%
21:00 +26°C° 0 mm 1 m/S 759 mmHg 61%
22:00 +25°C° 0 mm 1 m/S 759 mmHg 62%
23:00 +25°C° 0 mm 1 m/S 759 mmHg 62%

Morgen, 11 Juli, Samstag

Zeit Temperatur Niederschläge Wind Luftdruck Luftfeuchtigkeit
00:00 +25°C° 0 mm 1 m/S 759 mmHg 62%
01:00 +25°C° 0 mm 1 m/S 760 mmHg 63%
02:00 +25°C° 0 mm 1 m/S 759 mmHg 63%
03:00 +25°C° 0 mm 1 m/S 759 mmHg 64%
04:00 +24°C° 0 mm 1 m/S 759 mmHg 65%
05:00 +26°C° 0 mm 1 m/S 759 mmHg 61%
06:00 +27°C° 0 mm 1 m/S 759 mmHg 57%
07:00 +29°C° 0 mm 1 m/S 759 mmHg 52%
08:00 +30°C° 0 mm 1 m/S 759 mmHg 48%
09:00 +32°C° 0 mm 1 m/S 759 mmHg 44%
10:00 +34°C° 0 mm 2 m/S 759 mmHg 40%
11:00 +35°C° 0 mm 3 m/S 759 mmHg 39%
12:00 +35°C° 0 mm 4 m/S 758 mmHg 38%
13:00 +35°C° 0 mm 4 m/S 758 mmHg 37%
14:00 +35°C° 0 mm 4 m/S 758 mmHg 38%
15:00 +34°C° 0 mm 4 m/S 758 mmHg 38%
16:00 +33°C° 0 mm 4 m/S 758 mmHg 39%
17:00 +31°C° 0 mm 3 m/S 758 mmHg 44%
18:00 +29°C° 0 mm 2 m/S 758 mmHg 49%
19:00 +28°C° 0 mm 1 m/S 758 mmHg 54%
20:00 +27°C° 0 mm 1 m/S 758 mmHg 54%
21:00 +26°C° 0 mm 1 m/S 758 mmHg 54%
22:00 +26°C° 0 mm 1 m/S 758 mmHg 54%
23:00 +25°C° 0 mm 1 m/S 758 mmHg 56%

übermorgen, 12 Juli, Sonntag

Zeit Temperatur Niederschläge Wind Luftdruck Luftfeuchtigkeit
00:00 +25°C° 0 mm 1 m/S 758 mmHg 58%
01:00 +24°C° 0 mm 1 m/S 758 mmHg 59%
02:00 +24°C° 0 mm 1 m/S 757 mmHg 60%
03:00 +24°C° 0 mm 1 m/S 757 mmHg 61%
04:00 +24°C° 0 mm 1 m/S 757 mmHg 61%
05:00 +25°C° 0 mm 1 m/S 758 mmHg 57%
06:00 +27°C° 0 mm 1 m/S 758 mmHg 52%
07:00 +29°C° 0 mm 1 m/S 758 mmHg 47%
08:00 +30°C° 0 mm 2 m/S 758 mmHg 44%
09:00 +33°C° 0 mm 3 m/S 758 mmHg 41%
10:00 +34°C° 0 mm 3 m/S 758 mmHg 38%
11:00 +34°C° 0 mm 4 m/S 758 mmHg 38%
12:00 +35°C° 0 mm 5 m/S 758 mmHg 39%
13:00 +35°C° 0 mm 6 m/S 758 mmHg 40%
14:00 +34°C° 0 mm 6 m/S 758 mmHg 43%
15:00 +34°C° 0 mm 5 m/S 758 mmHg 47%
16:00 +33°C° 0 mm 5 m/S 758 mmHg 50%
17:00 +32°C° 0 mm 4 m/S 758 mmHg 56%
18:00 +29°C° 0 mm 4 m/S 758 mmHg 62%
19:00 +28°C° 0 mm 3 m/S 758 mmHg 67%
20:00 +27°C° 0 mm 2 m/S 758 mmHg 72%
21:00 +26°C° 0 mm 2 m/S 759 mmHg 76%
22:00 +25°C° 0 mm 2 m/S 759 mmHg 80%
23:00 +25°C° 0 mm 2 m/S 759 mmHg 80%

13 Juli, Montag

Zeit Temperatur Niederschläge Wind Luftdruck Luftfeuchtigkeit
00:00 +25°C° 0 mm 2 m/S 759 mmHg 80%
01:00 +24°C° 0 mm 2 m/S 759 mmHg 80%
02:00 +24°C° 0 mm 2 m/S 758 mmHg 79%
03:00 +24°C° 0 mm 2 m/S 758 mmHg 78%
04:00 +24°C° 0 mm 2 m/S 758 mmHg 78%
05:00 +25°C° 0 mm 2 m/S 758 mmHg 72%
06:00 +27°C° 0 mm 2 m/S 758 mmHg 66%
07:00 +28°C° 0 mm 3 m/S 759 mmHg 60%
08:00 +29°C° 0 mm 3 m/S 759 mmHg 55%
09:00 +32°C° 0 mm 4 m/S 759 mmHg 50%
10:00 +33°C° 0 mm 4 m/S 759 mmHg 45%
11:00 +33°C° 0 mm 5 m/S 758 mmHg 43%
12:00 +34°C° 0 mm 6 m/S 758 mmHg 41%
13:00 +34°C° 0 mm 6 m/S 758 mmHg 39%
14:00 +33°C° 0 mm 7 m/S 757 mmHg 40%
15:00 +33°C° 0 mm 7 m/S 757 mmHg 40%
16:00 +32°C° 0 mm 7 m/S 757 mmHg 41%
17:00 +29°C° 0 mm 7 m/S 757 mmHg 48%
18:00 +28°C° 0 mm 6 m/S 757 mmHg 54%
19:00 +26°C° 0 mm 5 m/S 757 mmHg 61%
20:00 +25°C° 0 mm 4 m/S 757 mmHg 64%
21:00 +23°C° 0 mm 4 m/S 758 mmHg 67%
22:00 +24°C° 0 mm 3 m/S 758 mmHg 69%
23:00 +22°C° 0 mm 3 m/S 758 mmHg 67%

14 Juli, Dienstag

Zeit Temperatur Niederschläge Wind Luftdruck Luftfeuchtigkeit
00:00 +23°C° 0 mm 2 m/S 758 mmHg 64%
01:00 +23°C° 0 mm 2 m/S 758 mmHg 61%
02:00 +23°C° 0 mm 2 m/S 758 mmHg 59%
03:00 +21°C° 0 mm 3 m/S 758 mmHg 56%
04:00 +21°C° 0 mm 3 m/S 758 mmHg 53%
05:00 +22°C° 0 mm 3 m/S 758 mmHg 49%
06:00 +25°C° 0 mm 3 m/S 758 mmHg 46%
07:00 +26°C° 0 mm 3 m/S 758 mmHg 42%
08:00 +28°C° 0 mm 3 m/S 758 mmHg 40%
09:00 +29°C° 0 mm 2 m/S 758 mmHg 38%
10:00 +31°C° 0 mm 2 m/S 758 mmHg 36%
11:00 +31°C° 0 mm 3 m/S 758 mmHg 37%
12:00 +33°C° 0 mm 4 m/S 758 mmHg 38%
13:00 +33°C° 0 mm 4 m/S 758 mmHg 39%
14:00 +32°C° 0 mm 4 m/S 758 mmHg 41%
15:00 +32°C° 0 mm 5 m/S 758 mmHg 43%
16:00 +30°C° 0 mm 5 m/S 757 mmHg 45%
17:00 +29°C° 0 mm 4 m/S 758 mmHg 50%
18:00 +27°C° 0 mm 3 m/S 758 mmHg 55%
19:00 +25°C° 0 mm 3 m/S 758 mmHg 61%
20:00 +25°C° 0 mm 2 m/S 758 mmHg 63%
21:00 +24°C° 0 mm 2 m/S 759 mmHg 66%
22:00 +23°C° 0 mm 1 m/S 759 mmHg 68%
23:00 +23°C° 0 mm 1 m/S 759 mmHg 68%

15 Juli, Mittwoch

Zeit Temperatur Niederschläge Wind Luftdruck Luftfeuchtigkeit
00:00 +23°C° 0 mm 1 m/S 759 mmHg 68%
01:00 +23°C° 0 mm 1 m/S 759 mmHg 68%
02:00 +23°C° 0 mm 1 m/S 759 mmHg 69%
03:00 +22°C° 0 mm 1 m/S 759 mmHg 70%
04:00 +22°C° 0 mm 1 m/S 759 mmHg 71%
05:00 +24°C° 0 mm 1 m/S 759 mmHg 65%
06:00 +25°C° 0 mm 1 m/S 759 mmHg 60%
07:00 +27°C° 0 mm 1 m/S 760 mmHg 54%
08:00 +28°C° 0 mm 1 m/S 760 mmHg 51%
09:00 +30°C° 0 mm 2 m/S 760 mmHg 47%
10:00 +31°C° 0 mm 2 m/S 760 mmHg 43%
11:00 +33°C° 0 mm 3 m/S 760 mmHg 42%
12:00 +33°C° 0 mm 4 m/S 760 mmHg 41%
13:00 +34°C° 0 mm 4 m/S 760 mmHg 40%
14:00 +33°C° 0 mm 4 m/S 759 mmHg 39%
15:00 +33°C° 0 mm 3 m/S 759 mmHg 37%
16:00 +31°C° 0 mm 3 m/S 759 mmHg 36%
17:00 +29°C° 0 mm 2 m/S 759 mmHg 40%
18:00 +27°C° 0 mm 1 m/S 759 mmHg 44%
19:00 +23°C° 0 mm 0 m/S 759 mmHg 48%
20:00 +23°C° 0 mm 0 m/S 760 mmHg 48%
21:00 +22°C° 0 mm 0 m/S 760 mmHg 48%
22:00 +22°C° 0 mm 0 m/S 760 mmHg 49%
23:00 +21°C° 0 mm 0 m/S 760 mmHg 49%
Mehr zeigen